Weather in Valea lui Mihai

Romania     47°30′58″N   22°08′06″E
temp.,
°C
wind,
m/s
gust,
m/s
humid.,
%
clouds,
%
prec.,
mm/h
press.,
hPa
HPBL,
m
24 september, fri
fri2400:00+11ssw71561100 0.0 1018486
03:00+11ssw81659100 0.0 1016527
06:00+10ssw101964100 0.0 1013562
09:00+11sw111763100 0.1 1012610
12:00+17wsw81256100 0.0 10121323
15:00+19nnw5950100 0.1 10111252
18:00+16ne4459100 0.0 1012347
21:00+11e3377100 0.0 101528
25 september, sat
sat2500:00+11ese337599 0.0 101725
03:00+11se22721 0.0 101812
06:00+10se11681 0.0 101910
09:00+13s23570 0.0 1020131
12:00+20sw45380 0.0 1021942
15:00+23sw45330 0.0 10191626
18:00+23w34370 0.0 1019575
21:00+17nne11554 0.0 102011
26 september, sun
sun2600:00+15sse22630 0.0 102113
03:00+14sse11750 0.0 102111
06:00+13ese11785 0.0 102111
09:00+16ese11654 0.0 102275
12:00+23ene1146100 0.0 1022613
15:00+25ne2140100 0.0 10201229
18:00+25ne23425 0.0 1019343
21:00+18ene33641 0.0 101940
27 september, mon
mon2700:00+16e33710 0.0 101932
03:00+15ene347621 0.0 101856
06:00+14ene348012 0.0 101764
09:00+16ene36705 0.0 1017173
12:00+23ene33455 0.0 1017637
15:00+27ne22357 0.0 10151422
18:00+26n3337100 0.0 1015162
21:00+20wnw0157100 0.0 101624
28 september, tue
tue2800:00+18ene0166100 0.0 101612
03:00+17wsw1179100 0.6 101725
06:00+17ene0186100 1.1 101712
09:00+16ene1294100 2.8 101768
12:00+16wsw1195100 5.4 1018119
15:00+19sw117798 6.6 1018540
18:00+18s3383100 0.6 1017176
21:00+16ssw229460 1.6 101830